User: anonymous   Login
Location: Unspecified
(0.0000°N, 0.0000°E)
Time: 23:28:34
(UTC+00:00)
Language:

UHF F/O F4 - Orbit

View from above orbital plane
View from above orbital plane
View from above satellite
View from above satellite

Ground track
Ground track

The orbit data is extracted from the following two-line orbital elements,

1 23467U 95003A   17358.09303814 0.00000000  00000-0  00000-0 0    04
2 23467   9.7889  26.1969 0004664 244.0513 115.9089  1.00270000    00
Epoch (UTC): 24 December 2017 02:13:58
Eccentricity: 0.0004664
inclination: 9.7889°
perigee height: 35767 km
apogee height: 35806 km
right ascension of ascending node: 26.1969°
argument of perigee: 244.0513°
revolutions per day: 1.00270000
mean anomaly at epoch: 115.9089°
orbit number at epoch: 0

The dashed part of the orbit path shows where the satellite is in the earth's shadow,  

DLR